Crane Lake, MN

9:18 PM CST on February 21, 2017 (GMT -0600)
Crane Lake

Weather History for KCDD - November, 2012

Change the Weather History Date:

Monday, November 5, 2012

  Actual Average Record
Temperature  
Mean Temperature 32 °F -  
Max Temperature 37 °F 37 °F 68 °F (2001)
Min Temperature 26 °F 24 °F 15 °F (2002)
Degree Days  
Heating Degree Days 34    
Moisture  
Dew Point 26 °F    
Average Humidity 80    
Maximum Humidity 93    
Minimum Humidity 60    
Precipitation  
Precipitation 0.00 in - - ()
Sea Level Pressure  
Sea Level Pressure 30.14 in    
Wind  
Wind Speed 1 mph (SSE)    
Max Wind Speed 8 mph    
Max Gust Speed -    
Visibility 10 miles    
Events      
Averages and records for this station are not official NWS values.
T = Trace of Precipitation, MM = Missing Value Source: NWS Daily Summary

Daily Weather History Graph

Daily Weather History Graph

Search for Another Location

Airport or City:

Trip Planner

Search our weather history database for the weather conditions in past years. The results will help you decide how hot, cold, wet, or windy it might be!

Date:

Astronomy

Nov. 05, 2012 Rise Set
Actual Time 7:02 AM CST 4:43 PM CST
Civil Twilight 6:29 AM CST 5:16 PM CST
Nautical Twilight 5:52 AM CST 5:54 PM CST
Astronomical Twilight 5:15 AM CST 6:30 PM CST
Moon 10:22 PM CST (11/5) 12:23 PM CST (11/5)
Length of Visible Light 10h 47m
Length of Day
9h 41m
Waning Gibbous, 62% of the Moon is Illuminated
Nov 5
Waning Gibbous
Nov 6
Last Quarter
Nov 13
New
Nov 20
First Quarter
Nov 28
Full

Hourly Weather History & Observations

Time (CST) Temp. Windchill Dew Point Humidity Pressure Visibility Wind Dir Wind Speed Gust Speed Precip Events Conditions
12:07 AM 26.6 °F - 24.8 °F 93% 30.28 in 10.0 mi Calm Calm - N/A   Overcast
12:27 AM 26.6 °F - 24.8 °F 93% 30.28 in 10.0 mi Calm Calm - N/A   Overcast
12:47 AM 26.6 °F - 24.8 °F 93% 30.28 in 10.0 mi Calm Calm - N/A   Overcast
1:07 AM 26.6 °F - 24.8 °F 93% 30.28 in 10.0 mi Calm Calm - N/A   Overcast
1:27 AM 26.6 °F - 24.8 °F 93% 30.28 in 10.0 mi Calm Calm - N/A   Overcast
1:47 AM 26.6 °F - 24.8 °F 93% 30.28 in 10.0 mi Calm Calm - N/A   Overcast
2:07 AM 26.6 °F - 24.8 °F 93% 30.28 in 10.0 mi Calm Calm - N/A   Overcast
2:27 AM 26.6 °F - 24.8 °F 93% 30.28 in 10.0 mi Calm Calm - N/A   Overcast
2:47 AM 28.4 °F - 24.8 °F 86% 30.28 in 10.0 mi Calm Calm - N/A   Overcast
3:07 AM 28.4 °F - 24.8 °F 86% 30.28 in 10.0 mi Calm Calm - N/A   Overcast
3:27 AM 26.6 °F - 24.8 °F 93% 30.28 in 10.0 mi Calm Calm - N/A   Overcast
3:47 AM 26.6 °F - 24.8 °F 93% 30.28 in 10.0 mi Calm Calm - N/A   Overcast
4:07 AM 26.6 °F - 24.8 °F 93% 30.28 in 10.0 mi Calm Calm - N/A   Overcast
4:27 AM 26.6 °F - 24.8 °F 93% 30.28 in 10.0 mi Calm Calm - N/A   Overcast
4:47 AM 26.6 °F - 24.8 °F 93% 30.28 in 10.0 mi Calm Calm - N/A   Overcast
5:07 AM 26.6 °F - 24.8 °F 93% 30.26 in 10.0 mi Calm Calm - N/A   Overcast
5:27 AM 26.6 °F - 24.8 °F 93% 30.26 in 10.0 mi Calm Calm - N/A   Overcast
5:47 AM 26.6 °F - 24.8 °F 93% 30.26 in 10.0 mi Calm Calm - N/A   Overcast
6:07 AM 26.6 °F - 24.8 °F 93% 30.25 in 10.0 mi Calm Calm - N/A   Overcast
6:27 AM 26.6 °F - 24.8 °F 93% 30.25 in 10.0 mi Calm Calm - N/A   Overcast
6:47 AM 26.6 °F - 24.8 °F 93% 30.25 in 10.0 mi Calm Calm - N/A   Overcast
7:07 AM 26.6 °F - 24.8 °F 93% 30.25 in 10.0 mi Calm Calm - N/A   Overcast
7:27 AM 26.6 °F - 24.8 °F 93% 30.25 in 10.0 mi Calm Calm - N/A   Overcast
7:47 AM 26.6 °F - 24.8 °F 93% 30.25 in 10.0 mi Calm Calm - N/A   Overcast
8:07 AM 28.4 °F - 26.6 °F 93% 30.25 in 10.0 mi Calm Calm - N/A   Overcast
8:27 AM 28.4 °F - 26.6 °F 93% 30.26 in 10.0 mi Calm Calm - N/A   Overcast
8:47 AM 30.2 °F - 26.6 °F 86% 30.25 in 10.0 mi Calm Calm - N/A   Overcast
9:07 AM 30.2 °F 24.3 °F 26.6 °F 86% 30.25 in 10.0 mi SSE 5.8 mph - N/A   Overcast
9:27 AM 33.8 °F 29.6 °F 26.6 °F 75% 30.24 in 10.0 mi SSE 4.6 mph - N/A   Scattered Clouds
9:47 AM 33.8 °F 30.8 °F 24.8 °F 70% 30.24 in 10.0 mi South 3.5 mph - N/A   Scattered Clouds
10:07 AM 33.8 °F 30.8 °F 24.8 °F 70% 30.24 in 10.0 mi South 3.5 mph - N/A   Overcast
10:27 AM 33.8 °F 29.6 °F 24.8 °F 70% 30.23 in 10.0 mi South 4.6 mph - N/A   Overcast
10:47 AM 33.8 °F 30.8 °F 24.8 °F 70% 30.22 in 10.0 mi SSE 3.5 mph - N/A   Overcast
11:07 AM 33.8 °F 28.6 °F 24.8 °F 70% 30.22 in 10.0 mi South 5.8 mph - N/A   Overcast
11:27 AM 35.6 °F 30.7 °F 24.8 °F 65% 30.21 in 10.0 mi SW 5.8 mph - N/A   Overcast
11:47 AM 33.8 °F 29.6 °F 24.8 °F 70% 30.21 in 10.0 mi South 4.6 mph - N/A   Overcast
12:07 PM 33.8 °F 30.8 °F 24.8 °F 70% 30.19 in 10.0 mi SSW 3.5 mph - N/A   Overcast
12:27 PM 35.6 °F - 24.8 °F 65% 30.18 in 10.0 mi Calm Calm - N/A   Overcast
12:47 PM 35.6 °F - 24.8 °F 65% 30.17 in 10.0 mi Calm Calm - N/A   Overcast
1:07 PM 35.6 °F 32.8 °F 24.8 °F 65% 30.15 in 10.0 mi SE 3.5 mph - N/A   Overcast
1:27 PM 35.6 °F 31.7 °F 24.8 °F 65% 30.13 in 10.0 mi SE 4.6 mph - N/A   Overcast
1:47 PM 37.4 °F - 26.6 °F 65% 30.11 in 10.0 mi Calm Calm - N/A   Overcast
2:07 PM 37.4 °F - 24.8 °F 60% 30.10 in 10.0 mi Calm Calm - N/A   Overcast
2:27 PM 35.6 °F 31.7 °F 24.8 °F 65% 30.10 in 10.0 mi South 4.6 mph - N/A   Overcast
2:47 PM 35.6 °F 31.7 °F 24.8 °F 65% 30.09 in 10.0 mi SSE 4.6 mph - N/A   Overcast
3:07 PM 35.6 °F - 24.8 °F 65% 30.08 in 10.0 mi Calm Calm - N/A   Overcast
3:27 PM 35.6 °F - 24.8 °F 65% 30.08 in 10.0 mi Calm Calm - N/A   Overcast
3:47 PM 35.6 °F - 24.8 °F 65% 30.07 in 10.0 mi Calm Calm - N/A   Overcast
4:07 PM 35.6 °F - 24.8 °F 65% 30.06 in 10.0 mi Calm Calm - N/A   Overcast
4:27 PM 35.6 °F - 26.6 °F 70% 30.06 in 10.0 mi Calm Calm - N/A   Overcast
4:47 PM 33.8 °F - 26.6 °F 75% 30.05 in 10.0 mi Calm Calm - N/A   Overcast
5:07 PM 33.8 °F - 26.6 °F 75% 30.04 in 10.0 mi Calm Calm - N/A   Overcast
5:27 PM 33.8 °F - 26.6 °F 75% 30.04 in 10.0 mi Calm Calm - N/A   Overcast
5:47 PM 33.8 °F - 26.6 °F 75% 30.02 in 10.0 mi Calm Calm - N/A   Overcast
6:07 PM 33.8 °F 30.8 °F 26.6 °F 75% 30.01 in 10.0 mi SE 3.5 mph - N/A   Overcast
6:27 PM 33.8 °F 29.6 °F 26.6 °F 75% 30.00 in 10.0 mi SSE 4.6 mph - N/A   Overcast
6:47 PM 33.8 °F 28.6 °F 26.6 °F 75% 29.99 in 10.0 mi SSE 5.8 mph - N/A   Overcast
7:07 PM 35.6 °F 30.7 °F 26.6 °F 70% 29.98 in 10.0 mi South 5.8 mph - N/A   Overcast
7:27 PM 35.6 °F 32.8 °F 26.6 °F 70% 29.98 in 10.0 mi SSE 3.5 mph - N/A   Overcast
7:47 PM 35.6 °F 30.7 °F 26.6 °F 70% 29.96 in 10.0 mi SSE 5.8 mph - N/A   Overcast
8:07 PM 35.6 °F 31.7 °F 26.6 °F 70% 29.95 in 10.0 mi SSE 4.6 mph - N/A   Overcast
8:27 PM 35.6 °F 31.7 °F 28.4 °F 75% 29.94 in 10.0 mi SSE 4.6 mph - N/A   Overcast
8:47 PM 35.6 °F 31.7 °F 28.4 °F 75% 29.94 in 10.0 mi South 4.6 mph - N/A   Overcast
9:07 PM 33.8 °F 27.0 °F 28.4 °F 81% 29.93 in 10.0 mi SSE 8.1 mph - N/A   Overcast
9:27 PM 33.8 °F 29.6 °F 28.4 °F 81% 29.92 in 10.0 mi SSE 4.6 mph - N/A   Overcast
9:47 PM 33.8 °F 30.8 °F 28.4 °F 81% 29.91 in 10.0 mi SE 3.5 mph - N/A   Overcast
10:07 PM 33.8 °F 28.6 °F 28.4 °F 81% 29.90 in 10.0 mi SSE 5.8 mph - N/A   Overcast
10:27 PM 33.8 °F 27.7 °F 30.2 °F 87% 29.89 in 10.0 mi SSE 6.9 mph - N/A   Overcast
10:47 PM 33.8 °F 27.0 °F 30.2 °F 87% 29.88 in 10.0 mi SSE 8.1 mph - N/A   Overcast
11:07 PM 33.8 °F 28.6 °F 30.2 °F 87% 29.86 in 10.0 mi SSE 5.8 mph - N/A   Overcast
11:27 PM 33.8 °F 29.6 °F 30.2 °F 87% 29.85 in 10.0 mi SE 4.6 mph - N/A   Overcast